Location: Cruquius
(52.3348°N, 4.6319°E)
Time: 21:45:10
(UTC+00:00)

CZ-4C R/B - Pass Details

Date: 12 May 2021
Orbit: 609 x 1393 km, 63.4° (Epoch: 23 June)

Event Time Altitude Azimuth Distance (km) Brightness Sun altitude
Rises 20:59:59 0° 313° (NW) 3,806 7.6 -11.4°
Reaches altitude 10° 21:02:32 10° 307° (NW) 2,958 6.4 -11.7°
Maximum altitude 21:09:19 46° 238° (WSW) 1,610 3.7 -12.3°
Enters shadow 21:16:27 13° 170° (S) 3,177 4.6 -12.9°
